Tracking 19242 objects as of 15-Aug-2018
HD Live streaming from Space Station
objects crossing your sky now

ARIANE 5 DEB (SYLDA)

Track ARIANE 5 DEB (SYLDA) now!
10-day predictions


NORAD ID: 29164
Int'l Code: 2006-020C
Perigee: 279.1 km
Apogee: 12,978.4 km
Inclination: 6.8 °
Period: 245.8 minutes
Semi major axis: 12999 km
RCS: 17.7393 m2 (large)
Launch date: May 27, 2006
Source: France (FR)
Launch site: FRENCH GUIANA (FRGUI)

Note: This is SATELLITE DEBRIS
aabbcc
Your satellite tracking list
Your tracking list is empty




NASA's NSSDC Master Catalog

Two Line Element Set (TLE):
1 29164U 06020C   18226.95033961  .00009344  00000-0  84393-3 0  9995
2 29164   6.8103 145.8160 4884453 211.6635 106.4562  5.85734056192084
Source of the keplerian elements: AFSPC